"2018/01/01", 5.1, 6.1, 4.5
"2018/01/02", 5.0, 5.8, 4.4
"2018/01/03", 4.6, 5.1, 4.1
"2018/01/04", 4.3, 5.2, 3.8
"2018/01/05", 3.9, 4.2, 3.4
"2018/01/06", 4.4, 4.9, 3.9
"2018/01/07", 4.6, 5.2, 4.0
"2018/01/08", 4.7, 5.0, 4.4
"2018/01/09", 5.3, 6.1, 4.9
"2018/01/10", 5.1, 5.5, 4.7
"2018/01/11", 5.0, 5.8, 4.4
"2018/01/12", 4.8, 5.3, 4.2
"2018/01/13", 4.3, 4.9, 3.4
"2018/01/14", 4.2, 4.8, 3.5
"2018/01/15", 4.4, 5.0, 3.9
"2018/01/16", 4.9, 5.9, 4.1
"2018/01/17", 5.0, 5.5, 4.8
"2018/01/18", 5.9, 7.0, 5.1
"2018/01/19", 5.7, 6.4, 5.3
"2018/01/20", 5.4, 5.8, 5.0
"2018/01/21", 5.4, 6.1, 5.0
"2018/01/22", 4.7, 5.6, 3.2
"2018/01/23", 3.9, 5.0, 2.9
"2018/01/24", 4.3, 5.3, 3.7
"2018/01/25", 3.7, 4.1, 3.3
"2018/01/26", 2.9, 3.4, 2.0
"2018/01/27", 2.8, 3.8, 2.0
"2018/01/28", 2.5, 2.8, 1.9
"2018/01/29", 2.9, 3.7, 2.3
"2018/01/30", 3.1, 3.8, 2.5
"2018/01/31", 3.5, 4.4, 2.7
"2018/02/01", 3.3, 4.0, 2.9
"2018/02/02", 2.9, 3.1, 2.6
"2018/02/03", 3.4, 3.9, 2.9
"2018/02/04", 3.9, 4.4, 3.4
"2018/02/05", 4.1, 4.6, 3.5
"2018/02/06", 4.2, 5.2, 3.3
"2018/02/07", 4.2, 4.9, 3.5
"2018/02/08", 4.4, 5.2, 3.6
"2018/02/09", 4.4, 5.2, 3.9
"2018/02/10", 4.6, 5.3, 4.0
"2018/02/11", 5.4, 6.1, 4.6
"2018/02/12", 5.6, 6.4, 5.1
"2018/02/13", 5.4, 6.3, 4.9
"2018/02/14", 5.2, 5.6, 4.7
"2018/02/15", 5.5, 6.2, 5.0
"2018/02/16", 5.5, 5.9, 5.1
"2018/02/17", 6.0, 7.4, 5.2
"2018/02/18", 4.9, 5.7, 4.3
"2018/02/19", 5.5, 6.5, 4.5
"2018/02/20", 6.3, 7.2, 5.5
"2018/02/21", 6.0, 6.7, 5.5
"2018/02/22", 5.3, 6.1, 4.9
"2018/02/23", 5.2, 5.8, 4.6
"2018/02/24", 5.8, 6.5, 5.2
"2018/02/25", 5.5, 5.9, 5.2
"2018/02/26", 5.7, 6.7, 5.2
"2018/02/27", 5.9, 6.7, 4.9
"2018/02/28", 6.3, 7.0, 5.7
"2018/03/01", 7.3, 8.9, 6.3
"2018/03/02", 7.6, 8.8, 6.6
"2018/03/03", 8.6, 9.9, 7.3
"2018/03/04", 8.7, 9.5, 7.6
"2018/03/05", 9.6,10.9, 8.6
"2018/03/06", 9.3, 9.9, 8.1
"2018/03/07", 8.0, 8.6, 6.9
"2018/03/08", 7.6, 8.4, 7.2
"2018/03/09", 9.5,10.3, 8.5
"2018/03/10", 9.4,10.0, 8.8
"2018/03/11", 9.2,10.1, 8.3
"2018/03/12",10.0,12.1, 9.0
"2018/03/13", 9.6,11.1, 9.1
"2018/03/14",10.4,13.0, 9.0
"2018/03/15",11.0,12.6,10.1
"2018/03/16",11.4,12.1,10.4
"2018/03/17",10.4,11.6, 9.0
"2018/03/18",10.9,12.2,10.1
"2018/03/19",11.2,12.2,10.8
"2018/03/20",10.7,11.2, 9.8
"2018/03/21", 9.2, 9.9, 8.8
"2018/03/22",10.4,11.2, 8.4
"2018/03/23",11.2,12.2,10.5
"2018/03/24",11.5,13.1,10.6
"2018/03/25",12.4,14.1,10.9
"2018/03/26",12.2,13.6,11.3
"2018/03/27",13.3,15.8,11.3
"2018/03/28",14.5,17.3,12.8
"2018/03/29",14.1,17.0,12.1
"2018/03/30",14.0,14.8,13.0
"2018/03/31",14.1,15.8,12.3
"2018/04/01",14.6,15.4,14.0
"2018/04/02",15.8,17.6,14.4
"2018/04/03",15.5,17.5,14.8
"2018/04/04",15.8,18.6,14.6
"2018/04/05",15.7,16.2,14.6
"2018/04/06",16.1,17.0,15.1
"2018/04/07",16.4,17.2,15.0
"2018/04/08",15.4,16.3,14.6
"2018/04/09",15.1,15.8,13.9
"2018/04/10",15.3,17.3,13.9
"2018/04/11",15.5,16.2,14.8
"2018/04/12",16.5,18.1,15.5
"2018/04/13",16.6,17.8,15.7
"2018/04/14",15.8,16.2,15.1
"2018/04/15",16.0,16.4,15.6
"2018/04/16",16.3,17.8,14.7
"2018/04/17",15.6,15.8,15.3
"2018/04/18",15.4,15.7,15.0
"2018/04/19",15.8,17.3,14.8
"2018/04/20",17.0,18.5,15.7
"2018/04/21",16.9,17.4,16.5
"2018/04/22",18.0,20.2,16.5
"2018/04/23",17.9,18.5,17.0
"2018/04/24",17.7,18.5,16.8
"2018/04/25",18.2,19.0,17.8
"2018/04/26",18.4,20.2,17.5
"2018/04/27",18.4,19.1,18.1
"2018/04/28",19.1,20.8,18.1
"2018/04/29",19.5,20.6,18.7
"2018/04/30",20.1,20.7,19.7
"2018/05/01",21.1,24.2,19.6
"2018/05/02",20.4,21.0,20.1
"2018/05/03",21.1,22.0,20.2
"2018/05/04",20.1,21.2,19.0
"2018/05/05",19.7,20.3,19.1
"2018/05/06",20.3,22.7,19.1
"2018/05/07",19.6,20.3,18.3
"2018/05/08",17.6,18.5,17.2
"2018/05/09",16.8,17.7,15.6
"2018/05/10",16.5,17.4,15.6
"2018/05/11",16.9,17.5,16.2
"2018/05/12",18.5,21.2,16.9
"2018/05/13",17.7,18.1,17.2
"2018/05/14",19.0,21.6,17.4
"2018/05/15",19.1,21.5,18.4
"2018/05/16",19.0,19.6,18.1
"2018/05/17",19.9,20.5,19.1
"2018/05/18",20.1,20.4,19.8
"2018/05/19",20.1,20.8,19.4
"2018/05/20",19.3,20.6,17.9
"2018/05/21",20.3,22.3,19.0
"2018/05/22",20.8,23.4,19.2
"2018/05/23",20.4,21.0,20.0
"2018/05/24",21.0,22.5,19.8
"2018/05/25",21.3,21.9,20.7
"2018/05/26",21.4,21.9,20.7
"2018/05/27"," *"," *"," *"
"2018/05/28"," *"," *"," *"
"2018/05/29"," *"," *"," *"
"2018/05/30"," *"," *"," *"
"2018/05/31"," *"," *"," *"
"2018/06/01",22.3,23.2,21.1
"2018/06/02",23.2,25.0,21.8
"2018/06/03",23.6,25.1,22.5
"2018/06/04",24.3,26.2,22.7
"2018/06/05",24.7,26.3,23.5
"2018/06/06",23.7,24.1,23.3
"2018/06/07",23.6,24.2,22.9
"2018/06/08",23.9,24.5,23.3
"2018/06/09",25.2,28.1,23.5
"2018/06/10",23.6,24.5,22.9
"2018/06/11",22.4,23.1,21.8
"2018/06/12",22.1,22.4,21.8
"2018/06/13",22.6,24.0,21.4
"2018/06/14",22.4,22.8,21.7
"2018/06/15",21.1,21.7,19.9
"2018/06/16",19.8,20.2,19.3
"2018/06/17",20.8,22.4,19.4
"2018/06/18",20.7,20.9,20.5
"2018/06/19",21.8,23.6,20.2
"2018/06/20",21.8,22.1,21.4
"2018/06/21",21.5,21.9,21.1
"2018/06/22",22.4,24.2,21.3
"2018/06/23",22.2,22.4,21.9
"2018/06/24",22.0,23.4,21.6
"2018/06/25",23.2,25.9,21.6
"2018/06/26",24.2,26.8,22.9
"2018/06/27",24.4,25.0,23.0
"2018/06/28",24.7,25.2,24.2
"2018/06/29",25.6,26.8,24.5
"2018/06/30",26.2,26.8,25.5
"2018/07/01",26.5,26.8,25.9
"2018/07/02",26.7,27.1,26.2
"2018/07/03",27.1,27.5,26.5
"2018/07/04",26.7,27.2,26.2
"2018/07/05",26.2,26.6,25.7
"2018/07/06",25.3,26.1,24.1
"2018/07/07",25.1,25.7,23.8
"2018/07/08",25.7,26.3,25.2
"2018/07/09",26.1,26.7,25.7
"2018/07/10",26.5,27.5,25.8
"2018/07/11",28.2,31.0,26.2
"2018/07/12",28.0,28.7,27.3
"2018/07/13",27.9,29.7,27.1
"2018/07/14",29.0,30.6,27.9
"2018/07/15",28.9,29.8,28.2
"2018/07/16",28.7,29.2,28.4
"2018/07/17",28.8,29.5,28.3
"2018/07/18",30.5,32.5,29.1
"2018/07/19",29.8,30.3,29.3
"2018/07/20",29.8,30.1,29.4
"2018/07/21",29.6,30.4,29.1
"2018/07/22",30.6,32.8,29.1
"2018/07/23",31.3,34.1,29.7
"2018/07/24",30.7,31.9,29.8
"2018/07/25",30.0,30.9,29.2
"2018/07/26"," *"," *"," *"
"2018/07/27"," *"," *"," *"
"2018/07/28",27.1,27.8,26.3
"2018/07/29",27.7,28.4,27.0
"2018/07/30",28.5,29.7,27.5
"2018/07/31",29.9,32.8,28.5
"2018/08/01",30.2,32.5,28.8
"2018/08/02",30.3,32.2,29.1
"2018/08/03",30.3,31.0,29.6
"2018/08/04",30.3,31.4,29.1
"2018/08/05",30.1,30.5,29.8
"2018/08/06",29.6,30.3,28.4
"2018/08/07",26.7,28.0,25.9
"2018/08/08",26.0,26.5,25.2
"2018/08/09",25.7,26.2,25.1
"2018/08/10",26.3,27.4,25.6
"2018/08/11",27.4,29.0,26.0
"2018/08/12",27.2,27.7,26.8
"2018/08/13",28.3,30.9,26.7
"2018/08/14",27.5,28.3,27.2
"2018/08/15",27.8,28.3,27.2
"2018/08/16",27.7,28.1,27.3
"2018/08/17",27.7,29.2,26.7
"2018/08/18",27.3,28.8,25.8
"2018/08/19",27.1,28.7,26.0
"2018/08/20",26.6,27.1,25.9
"2018/08/21",27.2,28.3,26.4
"2018/08/22",27.7,28.3,27.2
"2018/08/23",28.2,29.1,27.5
"2018/08/24",28.1,28.7,27.5
"2018/08/25",28.0,28.6,27.3
"2018/08/26",29.7,32.1,27.9
"2018/08/27",29.7,30.9,28.7
"2018/08/28",28.5,29.4,27.7
"2018/08/29",27.7,28.1,27.2
"2018/08/30",28.0,28.3,27.7
"2018/08/31"," *"," *"," *"
"2018/09/01"," *"," *"," *"
"2018/09/02"," *"," *"," *"
"2018/09/03"," *"," *"," *"
"2018/09/04"," *"," *"," *"
"2018/09/05",26.2,27.1,25.4
"2018/09/06",26.5,27.2,26.1
"2018/09/07",26.4,26.8,26.0
"2018/09/08",26.6,27.5,25.9
"2018/09/09"," *"," *"," *"
"2018/09/10"," *"," *"," *"
"2018/09/11"," *"," *"," *"
"2018/09/12",24.1,24.9,23.5
"2018/09/13",24.6,25.9,23.5
"2018/09/14",24.6,24.9,24.3
"2018/09/15",24.2,24.4,23.8
"2018/09/16",24.8,26.3,23.8
"2018/09/17",25.3,26.7,24.3
"2018/09/18",25.6,27.0,24.7
"2018/09/19",24.9,25.7,24.0
"2018/09/20",24.2,24.8,23.1
"2018/09/21",22.5,23.1,21.7
"2018/09/22",23.1,24.2,22.0
"2018/09/23",24.1,25.0,23.4
"2018/09/24",24.3,25.1,23.7
"2018/09/25",23.9,24.6,22.8
"2018/09/26",22.0,23.1,21.0
"2018/09/27",20.7,21.3,20.1
"2018/09/28",21.9,23.5,20.3
"2018/09/29",22.0,22.4,21.7
"2018/09/30",21.5,21.9,21.1
"2018/10/01",22.4,23.0,21.9
"2018/10/02",22.3,23.3,21.7
"2018/10/03",21.9,22.6,21.4
"2018/10/04",21.5,21.7,21.0
"2018/10/05",21.1,21.5,20.7
"2018/10/06",21.8,24.1,20.8
"2018/10/07",22.9,23.7,22.0
"2018/10/08",22.7,23.3,22.3
"2018/10/09",22.2,22.9,21.4
"2018/10/10",22.5,23.3,21.8
"2018/10/11",22.4,22.6,22.1
"2018/10/12"," *"," *"," *"
"2018/10/13",20.5,21.3,19.9
"2018/10/14",19.4,19.9,18.2
"2018/10/15",19.8,20.5,19.2
"2018/10/16",20.1,21.2,19.1
"2018/10/17",20.0,20.5,19.5
"2018/10/18",19.2,20.0,18.3
"2018/10/19",18.5,19.0,17.6
"2018/10/20",18.5,19.2,17.8
"2018/10/21",18.2,18.9,17.3
"2018/10/22",18.8,20.5,17.4
"2018/10/23",18.1,18.8,17.4
"2018/10/24",17.8,18.7,16.9
"2018/10/25",18.5,19.9,17.4
"2018/10/26",18.0,18.4,17.3
"2018/10/27",18.2,18.7,17.8
"2018/10/28",18.3,18.8,17.9
"2018/10/29",18.2,19.1,17.5
"2018/10/30",18.3,19.8,17.4
"2018/10/31"," *"," *"," *"
"2018/11/01"," *"," *"," *"
"2018/11/02"," *"," *"," *"
"2018/11/03",17.4,19.3,16.2
"2018/11/04",17.3,17.7,16.8
"2018/11/05",18.4,20.4,17.2
"2018/11/06",18.9,19.5,18.1
"2018/11/07",17.3,18.2,16.6
"2018/11/08",16.7,17.3,15.9
"2018/11/09",17.1,17.3,16.9
"2018/11/10"," *"," *"," *"
"2018/11/11"," *"," *"," *"
"2018/11/12"," *"," *"," *"
"2018/11/13"," *"," *"," *"
"2018/11/14",15.6,16.2,14.9
"2018/11/15",15.1,16.1,14.0
"2018/11/16",15.8,17.0,14.7
"2018/11/17",16.0,16.8,15.3
"2018/11/18",15.3,15.6,14.8
"2018/11/19",14.8,15.1,14.2
"2018/11/20",14.4,14.8,13.9
"2018/11/21",14.3,14.9,13.2
"2018/11/22",13.8,14.3,13.3
"2018/11/23",13.4,14.4,12.6
"2018/11/24"," *"," *"," *"
"2018/11/25"," *"," *"," *"
"2018/11/26"," *"," *"," *"
"2018/11/27"," *"," *"," *"
"2018/11/28",13.7,14.8,12.8
"2018/11/29",13.4,14.0,13.1
"2018/11/30",13.1,13.9,12.4
"2018/12/01",12.6,13.0,12.0
"2018/12/02",11.6,12.1,11.3
"2018/12/03",12.1,12.8,11.5
"2018/12/04"," *"," *"," *"
"2018/12/05",13.6,14.2,13.3
"2018/12/06",12.5,13.4,11.9
"2018/12/07",12.3,12.6,12.1
"2018/12/08",11.5,12.1,10.7
"2018/12/09",10.5,11.0, 9.8
"2018/12/10", 9.6,10.2, 8.8
"2018/12/11", 9.1, 9.6, 8.5
"2018/12/12", 9.1, 9.6, 8.3
"2018/12/13", 9.0, 9.5, 8.1
"2018/12/14", 8.6, 9.2, 7.5
"2018/12/15", 7.5, 8.5, 6.2
"2018/12/16", 7.9, 8.5, 7.1
"2018/12/17", 7.9, 8.3, 7.7
"2018/12/18", 8.2, 8.9, 7.7
"2018/12/19", 8.1, 8.5, 7.8
"2018/12/20", 8.2, 9.2, 7.4
"2018/12/21", 8.8, 9.7, 8.0
"2018/12/22", 9.0, 9.3, 8.4
"2018/12/23", 9.1, 9.3, 8.8
"2018/12/24", 8.9, 9.5, 8.2
"2018/12/25", 8.2, 9.0, 7.3
"2018/12/26", 8.2, 8.5, 7.7
"2018/12/27", 8.3, 9.2, 7.7
"2018/12/28", 7.2, 8.4, 6.4
"2018/12/29", 6.4, 7.1, 5.0
"2018/12/30", 4.9, 5.9, 4.4
"2018/12/31", 5.3, 6.0, 4.4
